RH
51 26 22 19 17 15 20 23 18 24 25 22 24 23 31 34 39 51 42 39 37 46 55 62 82 78 77 77 78 80 78 78 78 77 75 73 74 73 69 68 68 70 71 66 65 70 73 69 73
30 26 21 15 18 14 18 20 22 22 25 24 25 25 27 42 34 39 42 39 32 42 47 53 71 79 81 81 81 80 78 77 77 76 77 77 74 74 74 74 72 70 70 74 74 73 73 77 76
37 24 18 15 12 12 22 20 23 27 22 22 26 24 29 40 32 33 34 35 29 30 39 49 62 64 67 67 67 70 76 81 81 78 76 76 75 74 74 73 75 79 77 74 74 79 82 79 79
26 24 17 17 10 23 19 19 23 25 21 20 20 28 30 31 30 25 28 29 28 24 25 46 58 58 60 59 59 60 62 65 76 82 79 78 77 75 74 75 77 81 82 81 81 80 77 82 83
23 20 17 16 22 22 17 19 20 20 19 20 20 26 32 30 21 20 22 22 24 24 24 28 54 55 58 61 60 58 57 56 57 63 75 81 82 82 82 82 82 80 79 79 80 80 81 80 84
23 20 14 17 20 22 20 18 18 17 18 21 20 22 27 25 21 24 24 25 25 24 26 25 45 48 48 57 62 61 59 58 56 56 57 60 64 71 76 80 83 82 81 80 79 79 80 82 82
23 17 13 12 23 24 21 18 18 18 19 20 18 21 24 23 20 23 27 28 32 34 33 31 30 36 52 52 60 60 59 61 58 56 57 58 57 56 60 70 73 82 85 85 85 84 82 82 83
21 18 20 17 22 24 20 19 18 17 18 19 20 22 25 20 18 24 30 35 34 35 37 36 35 32 30 28 59 59 54 53 55 52 53 60 67 68 62 63 67 65 71 80 86 86 85 86 88
24 21 18 23 19 25 21 22 19 17 17 15 17 19 18 17 18 23 31 35 35 36 38 38 41 39 36 31 35 50 55 58 63 56 56 48 24 25 28 51 64 68 66 70 71 77 85 90 92
27 22 21 23 23 22 22 19 19 18 18 17 17 18 17 18 20 23 26 31 36 38 40 43 44 47 43 33 39 36 32 34 34 33 34 30 29 26 32 46 63 64 69 75 71 75 82 88 59
30 27 26 26 25 21 22 20 18 18 21 16 17 18 18 19 21 22 20 24 33 39 41 45 46 49 48 47 43 39 36 38 36 35 36 36 33 32 30 27 26 30 49 29 32 34 34 39 46
29 28 25 28 25 25 24 19 20 19 16 13 14 15 17 18 21 23 22 24 29 37 42 45 46 48 49 52 45 44 41 42 39 39 39 41 40 43 38 33 33 32 30 32 33 29 28 28 28
27 25 22 23 23 21 19 21 19 17 14 11 13 15 15 16 19 23 29 32 35 34 41 42 43 46 49 51 50 48 45 42 42 41 43 42 44 47 43 39 38 38 36 36 36 34 33 32 31
25 24 22 21 22 24 22 18 16 12 10 14 15 16 14 16 18 24 35 34 34 37 39 38 40 43 46 49 49 47 48 51 45 45 50 48 49 51 50 48 46 43 43 42 42 40 41 39 36
22 27 23 22 22 23 25 20 21 11 12 11 14 14 15 15 16 23 26 33 34 35 37 38 40 41 44 47 47 42 47 50 59 62 63 54 49 50 50 51 52 49 50 49 48 46 46 46 41
19 22 29 26 25 24 24 19 13 12 12 13 11 12 14 16 17 22 31 35 36 38 38 40 40 42 44 45 46 43 47 49 67 66 58 54 47 49 51 50 50 53 56 56 54 52 54 54 52
20 23 22 28 31 31 24 19 15 13 16 13 11 11 13 21 26 30 34 34 37 39 40 41 44 44 46 47 46 47 49 47 49 51 52 52 46 48 50 51 54 56 63 66 64 62 60 61 58
23 19 18 20 33 30 26 23 17 14 15 14 11 10 12 16 26 31 36 37 40 40 43 43 45 45 46 49 47 48 49 52 51 51 52 50 47 51 52 52 54 58 68 71 69 68 68 65 62
15 15 16 25 33 36 25 24 19 14 14 15 14 12 11 11 14 29 38 42 46 45 46 45 48 45 47 51 54 52 54 55 51 52 51 49 49 51 52 54 53 54 58 66 62 68 72 70 64
18 17 23 25 35 34 25 27 17 14 14 15 16 16 14 13 13 27 42 47 48 43 45 48 47 46 47 52 57 59 57 56 51 49 44 42 39 43 40 43 48 52 60 60 62 70 80 73 69
37 32 34 40 33 35 31 22 15 24 23 26 29 30 30 29 23 20 40 46 49 48 47 49 50 48 48 52 54 56 56 59 50 42 41 39 37 39 42 42 42 44 48 54 60 63 71 81 72
31 41 40 40 42 46 27 37 14 12 14 21 21 25 32 34 33 26 35 42 47 47 50 52 52 48 47 51 51 54 55 54 48 46 43 38 35 36 41 44 42 44 45 47 50 50 66 69 81
47 45 45 46 44 44 34 41 14 14 17 22 28 30 38 40 37 37 40 41 43 46 54 55 52 50 49 51 50 54 53 49 45 40 39 36 34 36 36 41 42 44 45 47 49 51 54 64 70
48 49 45 40 41 78 54 45 12 15 22 20 26 29 35 41 44 43 42 44 43 49 56 59 57 55 46 49 49 53 57 52 46 42 41 38 37 36 35 38 41 42 45 47 52 54 53 54 60
48 46 87 82 97 58 52 70 36 19 20 23 31 30 31 34 39 43 44 44 47 48 54 57 57 57 47 44 46 48 54 52 48 42 40 39 37 35 38 38 40 38 43 48 49 51 51 50 58
41 38 74 65 48 36 51 76 31 16 17 21 22 31 27 34 35 41 43 43 44 47 50 51 53 54 49 43 46 48 49 49 43 42 39 36 34 34 34 36 36 36 39 42 44 47 47 45 56
48 50 36 52 57 62 38 35 21 17 19 27 29 29 29 31 36 36 37 39 41 43 45 46 46 49 48 44 43 45 48 49 44 40 36 34 32 30 27 33 34 35 38 41 42 43 42 42 48
53 38 48 52 71 40 30 23 41 23 36 27 26 26 25 26 28 30 32 34 35 38 38 40 41 42 44 46 41 42 44 44 41 38 35 31 29 30 33 33 32 33 33 36 41 44 41 41 45
51 44 41 39 32 35 18 28 30 29 28 28 26 27 28 29 30 31 32 33 34 33 38 41 43 45 45 44 45 44 43 42 36 34 31 31 30 30 31 31 33 33 33 34 40 43 41 42 43
44 34 29 32 34 28 31 29 17 25 31 32 25 26 26 27 27 28 30 30 33 38 38 43 42 44 45 45 44 47 44 42 38 34 29 25 26 25 26 24 26 27 28 31 39 44 44 43 44
Wind_Speed
11 7 3 4 6 7 5 5 9 8 8 4 4 6 13 13 10 6 8 8 8 11 13 14 14 11 11 10 10 9 7 6 7 8 7 4 4 2 3 3 3 4 4 4 5 5 5 5 3
5 4 4 3 8 9 7 8 11 7 9 9 8 4 6 7 11 10 7 7 8 10 12 14 17 17 16 14 12 11 9 9 8 8 8 7 6 6 5 5 5 5 6 7 7 6 6 6 6
8 4 4 4 6 4 9 10 12 13 7 4 5 8 4 5 5 6 7 3 6 9 12 12 16 15 15 15 14 14 13 12 10 8 8 7 7 7 7 6 8 6 6 7 8 9 10 8 8
6 4 3 6 8 5 6 10 13 11 5 1 6 8 7 7 4 7 6 3 6 9 11 14 15 15 14 14 13 13 12 12 12 11 8 7 7 7 6 5 5 6 7 9 9 9 10 9 9
5 3 5 6 7 4 9 10 12 10 7 7 0 6 7 7 9 8 7 7 7 8 8 10 13 13 13 13 13 13 12 12 11 11 11 10 10 9 9 9 8 7 8 9 10 10 10 9 9
5 4 7 9 7 6 8 7 7 7 6 6 3 8 7 11 8 7 6 8 8 7 7 7 8 7 7 9 12 12 12 12 12 11 11 11 11 10 9 9 9 8 9 10 10 11 11 10 10
7 5 7 9 10 8 8 6 8 7 7 5 3 6 7 10 8 7 6 6 7 7 7 7 8 8 1 5 8 11 11 11 11 10 9 10 10 9 8 8 8 7 9 10 10 11 11 12 12
4 4 6 5 11 7 9 7 3 5 6 4 3 5 7 13 10 8 6 5 5 5 6 7 8 9 9 10 8 10 7 8 9 8 7 10 12 12 10 9 1 10 11 11 11 11 12 12 11
2 5 7 5 11 8 10 8 3 2 6 3 3 4 10 12 9 7 5 4 2 3 5 7 8 9 10 9 8 10 6 8 10 7 3 9 7 8 10 8 5 8 10 11 12 12 13 12 11
3 4 5 6 8 8 12 7 9 6 7 6 7 7 8 10 9 7 5 3 0 3 5 6 8 9 10 8 10 9 8 7 8 8 9 7 8 8 7 10 9 11 10 11 13 13 12 12 10
4 3 7 4 6 2 9 6 3 6 7 6 10 11 11 10 8 6 4 1 1 2 4 6 8 8 9 9 7 5 5 6 6 8 8 8 7 7 7 6 6 6 6 6 7 8 8 10 7
6 5 3 3 4 2 7 4 4 6 3 5 1 11 10 10 8 6 4 2 0 2 4 6 7 7 8 6 6 7 6 6 5 7 8 7 5 6 7 6 7 7 6 8 7 6 10 11 13
9 7 7 6 5 4 2 2 4 8 5 2 4 7 10 9 7 5 2 2 1 2 4 6 7 7 7 7 6 6 6 6 7 6 7 7 6 6 7 7 7 7 7 8 8 9 9 11 12
7 11 9 4 5 4 2 3 2 6 6 7 7 9 9 9 8 7 5 4 3 2 4 6 7 7 7 6 7 5 4 6 5 5 7 10 7 7 7 8 8 8 8 9 9 9 9 9 10
12 10 8 4 2 2 3 6 11 5 6 10 11 10 10 9 8 8 6 4 2 2 4 6 6 7 7 7 6 5 4 4 7 8 9 9 8 8 8 5 6 6 8 9 8 8 8 8 9
4 5 6 4 1 3 3 2 6 6 8 10 11 12 12 11 11 9 5 4 2 3 5 5 5 6 7 6 5 4 4 4 3 3 4 8 8 9 8 6 7 8 8 8 8 9 8 8 8
5 7 7 5 2 2 4 5 5 5 8 11 11 11 11 11 10 9 7 5 3 2 4 5 5 5 7 6 5 4 4 4 4 4 5 8 8 10 8 6 7 9 7 8 8 8 9 9 8
9 5 4 4 3 3 7 15 13 10 12 12 12 11 12 12 12 10 9 7 5 4 3 4 4 5 6 4 4 2 2 4 4 5 6 8 7 9 8 7 7 7 6 7 7 10 10 10 10
3 4 5 4 3 4 6 13 15 13 14 14 14 13 13 13 11 11 9 7 6 4 4 2 4 5 4 4 4 4 3 3 2 3 6 7 7 9 8 7 7 7 6 7 8 8 11 9 10
3 4 4 3 1 4 8 20 18 14 12 11 10 11 12 12 12 12 9 8 7 4 3 3 2 4 3 3 3 2 3 1 1 2 4 6 7 8 7 8 7 8 7 8 8 9 8 8 9
9 4 4 3 6 2 12 12 3 4 1 0 4 5 6 8 9 10 10 10 7 5 4 3 2 3 3 3 3 3 3 3 2 2 3 4 6 6 7 8 7 8 7 6 7 7 8 6 9
3 3 2 3 4 2 6 5 8 6 4 3 2 2 3 3 4 5 8 9 7 5 3 4 4 4 4 4 4 4 3 3 1 2 3 3 5 6 7 8 8 7 6 7 7 7 7 7 7
4 0 2 2 2 4 4 2 2 2 7 8 9 4 3 2 3 5 7 7 5 5 5 4 5 5 5 5 5 4 3 1 1 2 3 3 3 3 5 6 7 7 6 7 8 8 8 6 6
6 2 1 2 1 1 4 3 4 5 6 6 5 6 2 2 3 3 4 3 5 4 5 7 8 8 7 7 6 6 4 3 3 3 4 3 3 3 3 6 6 6 7 7 7 7 7 6 6
4 4 1 1 1 2 3 2 9 6 6 7 6 7 7 2 4 5 6 7 7 8 9 9 9 9 9 9 9 8 7 6 6 5 4 4 3 3 4 6 6 6 6 7 7 7 7 7 6
3 4 1 2 2 3 1 6 2 6 6 5 1 4 7 4 4 7 8 9 10 11 11 11 11 11 11 11 11 9 9 6 6 6 4 3 3 3 4 5 6 7 7 6 6 5 5 6 5
3 1 4 2 2 3 3 5 2 4 9 11 10 6 8 6 5 7 9 11 12 13 14 13 13 13 12 12 11 11 10 11 8 7 6 5 4 4 3 5 5 5 5 6 6 4 5 6 5
4 2 2 3 3 4 5 5 3 5 4 7 7 8 10 11 11 11 11 11 10 12 12 13 14 14 13 13 12 11 12 11 9 8 8 7 6 5 5 5 5 5 5 5 6 5 5 7 4
4 4 4 4 3 4 5 1 4 5 4 5 8 7 8 10 12 12 12 12 12 12 12 13 13 14 13 13 13 13 12 11 11 11 10 9 7 6 5 5 5 5 5 5 5 5 4 6 5
5 5 8 4 5 4 4 6 6 7 6 2 7 6 8 9 11 10 11 11 10 11 11 12 13 13 13 12 13 13 13 12 12 12 12 10 9 8 7 6 6 6 5 5 5 5 4 4 5
Wind_Direction
271 241 252 228 229 239 122 131 105 130 139 73 71 349 74 40 15 40 98 29 33 46 43 52 41 43 47 43 35 30 24 11 354 355 344 338 322 283 284 290 281 279 285 290 295 302 313 246 230
266 216 222 251 254 210 137 130 159 120 99 115 95 104 55 76 75 108 137 25 44 57 51 43 43 43 45 43 37 35 27 17 6 358 352 350 344 332 299 291 280 282 290 294 292 296 292 271 238
250 267 217 218 257 274 130 171 116 117 115 129 109 34 59 86 64 74 75 38 62 64 66 44 45 44 43 41 36 32 27 21 11 357 350 342 333 324 312 300 304 289 289 292 292 292 295 289 243
193 198 230 238 202 34 109 133 141 136 122 70 103 90 91 22 75 47 78 111 65 57 64 52 44 42 39 36 33 28 25 20 15 9 356 342 326 321 322 312 308 306 294 289 285 283 288 296 268
207 244 212 224 92 119 117 125 152 161 130 137 250 117 95 100 95 83 74 54 55 51 44 62 44 36 34 31 25 19 15 11 6 3 2 357 349 337 328 320 314 301 294 290 288 289 290 281 278
198 277 206 180 137 126 128 145 166 156 140 114 168 126 107 129 115 93 78 70 47 48 32 22 77 45 36 37 20 8 2 359 358 355 352 347 342 335 332 325 317 311 300 293 291 291 288 278 273
244 208 213 159 138 154 148 164 177 158 146 133 97 154 112 148 121 115 97 83 71 48 31 21 12 359 157 102 46 2 351 348 342 341 342 334 317 302 305 304 303 323 315 303 297 291 286 281 275
277 270 184 152 168 142 140 161 49 176 116 80 340 157 171 138 141 127 118 92 71 54 36 17 5 0 352 343 54 340 312 332 318 312 315 317 292 257 259 271 323 338 319 308 296 287 281 275 270
298 224 176 154 175 135 153 159 169 42 139 177 87 36 79 120 148 152 143 140 139 68 31 12 6 357 348 338 350 320 298 296 263 267 255 297 303 320 313 350 348 308 299 300 299 294 286 283 270
298 245 69 5 50 157 171 189 158 187 164 174 157 121 137 153 170 179 196 186 120 25 24 11 1 354 345 339 344 331 336 337 336 330 332 324 326 317 299 275 263 260 263 263 259 256 254 253 258
36 34 119 70 34 116 153 166 166 220 204 199 198 167 167 170 176 195 196 197 67 35 17 7 356 350 346 345 331 340 336 351 338 349 339 332 329 340 322 319 310 329 273 294 313 296 275 295 291
121 69 48 96 48 138 174 117 206 241 46 16 235 159 175 187 185 197 212 175 73 8 17 359 352 347 350 336 343 335 333 339 342 341 348 343 341 338 327 316 328 315 321 320 305 302 302 295 290
100 119 85 90 85 60 359 223 301 244 195 180 165 173 193 204 195 178 196 168 284 327 2 357 349 352 350 339 342 336 339 339 335 348 356 345 339 337 330 332 329 330 328 324 323 317 313 309 305
117 112 106 85 83 63 295 211 286 209 169 196 189 203 208 214 205 195 196 212 229 322 353 351 352 350 343 345 342 331 343 336 339 358 9 354 353 353 340 334 339 331 342 335 323 318 312 304 303
128 110 123 77 37 95 332 236 230 209 191 213 215 218 219 219 221 227 210 218 252 329 349 357 347 341 345 347 344 336 358 340 25 3 6 349 351 346 338 330 325 335 331 320 318 315 315 308 303
133 173 162 101 0 130 269 275 152 164 209 227 224 222 224 229 232 222 189 217 214 297 337 339 341 338 346 344 340 348 0 23 37 355 337 352 350 349 335 335 341 346 336 334 330 326 322 311 307
197 186 197 145 67 298 242 286 104 191 225 242 233 226 218 221 212 207 206 209 203 270 300 313 335 340 344 337 332 345 346 12 19 7 2 1 2 358 344 344 345 347 345 339 340 332 324 318 310
180 156 184 176 74 264 254 263 268 215 228 238 239 228 227 219 212 215 210 195 204 218 261 301 320 337 338 328 319 290 333 34 7 10 15 7 9 6 2 359 1 357 356 344 338 342 339 321 323
105 140 140 101 45 307 264 278 274 260 248 244 248 254 251 237 213 189 200 203 204 218 252 294 321 353 343 349 347 325 356 347 6 19 19 16 14 9 4 358 354 352 354 345 345 346 334 335 334
80 132 77 105 52 303 301 285 271 255 256 258 269 271 267 257 235 174 198 211 217 230 226 251 314 332 345 333 334 308 310 285 21 26 25 19 10 10 357 358 349 351 342 350 358 356 347 333 345
50 38 48 7 306 209 296 267 234 110 102 194 261 268 295 289 276 190 198 214 225 221 219 225 270 290 299 315 295 261 224 223 241 4 4 6 4 11 1 350 346 347 343 344 348 0 351 336 332
135 38 38 351 333 291 355 293 310 71 56 74 359 234 327 320 261 240 188 212 207 216 207 217 231 261 258 271 266 267 291 299 11 325 339 341 360 1 359 347 345 343 338 344 342 347 338 340 335
97 156 24 330 5 311 126 255 199 92 107 44 34 47 59 81 154 160 184 196 208 205 214 231 234 235 238 254 259 272 270 262 303 307 305 312 326 342 351 341 338 338 339 340 337 339 338 336 331
134 199 232 227 294 256 52 316 299 65 1 352 38 49 35 157 182 195 211 228 239 219 228 234 235 236 232 230 235 247 256 261 270 268 288 297 300 308 333 336 337 334 341 340 334 331 329 331 333
236 244 297 275 20 8 77 324 269 25 10 335 343 354 355 359 240 235 242 242 238 237 229 232 235 240 230 228 230 232 236 243 256 256 265 290 307 326 340 337 335 335 333 332 330 329 331 332 337
39 349 328 289 307 33 97 236 119 357 24 16 304 352 349 345 276 257 259 256 248 237 235 228 230 233 228 226 230 230 230 233 237 243 255 276 285 304 314 319 325 331 328 331 332 323 332 327 334
105 184 32 37 107 253 223 236 202 130 54 51 56 50 26 7 328 280 265 256 251 240 231 228 228 230 230 225 228 229 226 226 230 230 232 238 243 255 284 294 295 303 306 318 322 316 331 325 339
324 93 184 189 285 273 207 264 189 150 43 65 40 357 342 338 328 313 300 290 268 256 248 233 229 229 228 227 228 230 227 226 227 232 232 236 243 240 263 284 293 297 300 307 316 319 335 329 341
157 203 223 312 268 288 307 130 137 158 142 26 1 350 338 334 328 321 312 302 293 277 251 239 235 233 233 232 230 230 231 226 224 226 223 225 231 236 247 260 269 277 286 292 296 309 319 325 334
307 254 219 254 178 247 300 278 141 135 148 268 348 333 331 330 333 334 316 304 288 283 267 249 239 234 234 236 236 233 231 223 224 227 226 221 222 224 229 242 251 257 264 272 276 289 309 309 322